• In Uzbekistan
  • List of Countries
  • For 7 days
  • Water Temperature
  • Satellite Maps
  • Weather Map
  • Weather Widgets
  • user-avatar
    Login

    Hourly Weather Maun

    Today, 26 June, Wednesday

    Time Temperature Precipitation Wind Pressure Humidity
    00:00 +14°C° 0 mm 2 mps 683 mmHg 34%
    01:00 +14°C° 0 mm 2 mps 682 mmHg 37%
    02:00 +13°C° 0 mm 1 mps 683 mmHg 38%
    03:00 +13°C° 0 mm 2 mps 683 mmHg 40%
    04:00 +13°C° 0 mm 2 mps 683 mmHg 42%
    05:00 +12°C° 0 mm 2 mps 683 mmHg 45%
    06:00 +12°C° 0 mm 2 mps 683 mmHg 47%
    07:00 +13°C° 0 mm 2 mps 684 mmHg 49%
    08:00 +13°C° 0 mm 2 mps 684 mmHg 51%
    09:00 +17°C° 0 mm 3 mps 685 mmHg 42%
    10:00 +21°C° 0 mm 3 mps 685 mmHg 33%
    11:00 +25°C° 0 mm 3 mps 686 mmHg 24%
    12:00 +27°C° 0 mm 3 mps 685 mmHg 21%
    13:00 +28°C° 0 mm 3 mps 684 mmHg 17%
    14:00 +29°C° 0 mm 2 mps 684 mmHg 14%
    15:00 +29°C° 0 mm 2 mps 683 mmHg 14%
    16:00 +28°C° 0 mm 2 mps 683 mmHg 15%
    17:00 +28°C° 0 mm 1 mps 683 mmHg 15%
    18:00 +25°C° 0 mm 1 mps 683 mmHg 19%
    19:00 +22°C° 0 mm 1 mps 683 mmHg 23%
    20:00 +19°C° 0 mm 1 mps 683 mmHg 26%
    21:00 +18°C° 0 mm 1 mps 683 mmHg 29%
    22:00 +18°C° 0 mm 1 mps 683 mmHg 31%
    23:00 +16°C° 0 mm 2 mps 684 mmHg 34%

    Tomorrow, 27 June, Thursday

    Time Temperature Precipitation Wind Pressure Humidity
    00:00 +15°C° 0 mm 1 mps 683 mmHg 41%
    01:00 +14°C° 0 mm 1 mps 683 mmHg 48%
    02:00 +13°C° 0 mm 1 mps 683 mmHg 56%
    03:00 +13°C° 0 mm 2 mps 683 mmHg 61%
    04:00 +12°C° 0 mm 2 mps 683 mmHg 66%
    05:00 +12°C° 0 mm 2 mps 683 mmHg 71%
    06:00 +12°C° 0 mm 2 mps 683 mmHg 69%
    07:00 +13°C° 0 mm 2 mps 684 mmHg 66%
    08:00 +13°C° 0 mm 3 mps 684 mmHg 64%
    09:00 +17°C° 0 mm 3 mps 685 mmHg 54%
    10:00 +20°C° 0 mm 4 mps 686 mmHg 44%
    11:00 +25°C° 0 mm 4 mps 686 mmHg 34%
    12:00 +26°C° 0 mm 3 mps 686 mmHg 30%
    13:00 +28°C° 0 mm 3 mps 685 mmHg 25%
    14:00 +29°C° 0 mm 2 mps 684 mmHg 21%
    15:00 +29°C° 0 mm 2 mps 684 mmHg 21%
    16:00 +28°C° 0 mm 1 mps 684 mmHg 20%
    17:00 +28°C° 0 mm 1 mps 683 mmHg 20%
    18:00 +25°C° 0 mm 1 mps 683 mmHg 25%
    19:00 +22°C° 0 mm 1 mps 683 mmHg 29%
    20:00 +19°C° 0 mm 1 mps 683 mmHg 34%
    21:00 +19°C° 0 mm 1 mps 683 mmHg 36%
    22:00 +17°C° 0 mm 2 mps 683 mmHg 39%
    23:00 +16°C° 0 mm 2 mps 684 mmHg 41%

    Day after tomorrow, 28 June, Friday

    Time Temperature Precipitation Wind Pressure Humidity
    00:00 +15°C° 0 mm 2 mps 683 mmHg 43%
    01:00 +15°C° 0 mm 2 mps 683 mmHg 44%
    02:00 +14°C° 0 mm 2 mps 683 mmHg 46%
    03:00 +14°C° 0 mm 2 mps 683 mmHg 48%
    04:00 +13°C° 0 mm 2 mps 683 mmHg 51%
    05:00 +13°C° 0 mm 2 mps 683 mmHg 53%
    06:00 +13°C° 0 mm 2 mps 683 mmHg 55%
    07:00 +13°C° 0 mm 2 mps 684 mmHg 57%
    08:00 +13°C° 0 mm 3 mps 684 mmHg 58%
    09:00 +17°C° 0 mm 3 mps 685 mmHg 49%
    10:00 +21°C° 0 mm 3 mps 685 mmHg 40%
    11:00 +26°C° 0 mm 4 mps 686 mmHg 30%
    12:00 +27°C° 0 mm 3 mps 685 mmHg 26%
    13:00 +29°C° 0 mm 2 mps 685 mmHg 22%
    14:00 +31°C° 0 mm 1 mps 685 mmHg 18%
    15:00 +30°C° 0 mm 1 mps 684 mmHg 18%
    16:00 +29°C° 0 mm 2 mps 684 mmHg 18%
    17:00 +29°C° 0 mm 2 mps 683 mmHg 18%
    18:00 +26°C° 0 mm 2 mps 683 mmHg 22%
    19:00 +23°C° 0 mm 2 mps 683 mmHg 26%
    20:00 +19°C° 0 mm 2 mps 683 mmHg 30%
    21:00 +18°C° 0 mm 2 mps 683 mmHg 33%
    22:00 +17°C° 0 mm 2 mps 683 mmHg 36%
    23:00 +16°C° 0 mm 3 mps 683 mmHg 39%

    29 June, Saturday

    Time Temperature Precipitation Wind Pressure Humidity
    00:00 +16°C° 0 mm 2 mps 683 mmHg 39%
    01:00 +16°C° 0 mm 2 mps 683 mmHg 39%
    02:00 +15°C° 0 mm 2 mps 683 mmHg 39%
    03:00 +15°C° 0 mm 2 mps 683 mmHg 41%
    04:00 +14°C° 0 mm 2 mps 683 mmHg 42%
    05:00 +13°C° 0 mm 3 mps 683 mmHg 44%
    06:00 +13°C° 0 mm 3 mps 683 mmHg 44%
    07:00 +13°C° 0 mm 3 mps 684 mmHg 43%
    08:00 +13°C° 0 mm 3 mps 684 mmHg 42%
    09:00 +18°C° 0 mm 3 mps 685 mmHg 34%
    10:00 +22°C° 0 mm 4 mps 686 mmHg 26%
    11:00 +27°C° 0 mm 5 mps 686 mmHg 18%
    12:00 +28°C° 0 mm 4 mps 686 mmHg 16%
    13:00 +29°C° 0 mm 4 mps 685 mmHg 14%
    14:00 +30°C° 0 mm 4 mps 685 mmHg 12%
    15:00 +30°C° 0 mm 3 mps 684 mmHg 13%
    16:00 +29°C° 0 mm 3 mps 684 mmHg 13%
    17:00 +28°C° 0 mm 3 mps 684 mmHg 13%
    18:00 +25°C° 0 mm 3 mps 683 mmHg 16%
    19:00 +21°C° 0 mm 3 mps 683 mmHg 20%
    20:00 +18°C° 0 mm 3 mps 683 mmHg 23%
    21:00 +17°C° 0 mm 2 mps 683 mmHg 25%
    22:00 +16°C° 0 mm 2 mps 684 mmHg 26%
    23:00 +16°C° 0 mm 1 mps 684 mmHg 27%

    30 June, Sunday

    Time Temperature Precipitation Wind Pressure Humidity
    00:00 +15°C° 0 mm 1 mps 684 mmHg 28%
    01:00 +15°C° 0 mm 1 mps 684 mmHg 29%
    02:00 +14°C° 0 mm 1 mps 684 mmHg 30%
    03:00 +14°C° 0 mm 2 mps 684 mmHg 31%
    04:00 +13°C° 0 mm 2 mps 684 mmHg 33%
    05:00 +13°C° 0 mm 2 mps 683 mmHg 34%
    06:00 +13°C° 0 mm 2 mps 684 mmHg 34%
    07:00 +13°C° 0 mm 2 mps 684 mmHg 34%
    08:00 +13°C° 0 mm 2 mps 685 mmHg 34%
    09:00 +17°C° 0 mm 2 mps 685 mmHg 28%
    10:00 +21°C° 0 mm 3 mps 686 mmHg 22%
    11:00 +26°C° 0 mm 3 mps 687 mmHg 16%
    12:00 +27°C° 0 mm 3 mps 686 mmHg 15%
    13:00 +28°C° 0 mm 3 mps 685 mmHg 13%
    14:00 +30°C° 0 mm 3 mps 685 mmHg 12%
    15:00 +29°C° 0 mm 2 mps 684 mmHg 12%
    16:00 +29°C° 0 mm 1 mps 684 mmHg 13%
    17:00 +28°C° 0 mm 1 mps 683 mmHg 13%
    18:00 +25°C° 0 mm 1 mps 683 mmHg 16%
    19:00 +22°C° 0 mm 1 mps 683 mmHg 19%
    20:00 +20°C° 0 mm 1 mps 683 mmHg 22%
    21:00 +18°C° 0 mm 1 mps 683 mmHg 25%
    22:00 +16°C° 0 mm 1 mps 683 mmHg 27%
    23:00 +15°C° 0 mm 1 mps 683 mmHg 29%

    1 July, Monday

    Time Temperature Precipitation Wind Pressure Humidity
    00:00 +15°C° 0 mm 1 mps 683 mmHg 29%
    01:00 +14°C° 0 mm 2 mps 682 mmHg 30%
    02:00 +14°C° 0 mm 2 mps 682 mmHg 30%
    03:00 +13°C° 0 mm 2 mps 682 mmHg 32%
    04:00 +13°C° 0 mm 2 mps 682 mmHg 33%
    05:00 +12°C° 0 mm 1 mps 681 mmHg 34%
    06:00 +13°C° 0 mm 1 mps 682 mmHg 36%
    07:00 +13°C° 0 mm 1 mps 683 mmHg 38%
    08:00 +14°C° 0 mm 1 mps 684 mmHg 40%
    09:00 +17°C° 0 mm 2 mps 685 mmHg 33%
    10:00 +20°C° 0 mm 3 mps 685 mmHg 26%
    11:00 +22°C° 0 mm 3 mps 686 mmHg 19%
    12:00 +25°C° 0 mm 3 mps 685 mmHg 17%
    13:00 +26°C° 0 mm 3 mps 685 mmHg 16%
    14:00 +28°C° 0 mm 3 mps 684 mmHg 14%
    15:00 +27°C° 0 mm 3 mps 684 mmHg 15%
    16:00 +26°C° 0 mm 4 mps 684 mmHg 15%
    17:00 +26°C° 0 mm 4 mps 684 mmHg 16%
    18:00 +22°C° 0 mm 4 mps 684 mmHg 22%
    19:00 +18°C° 0 mm 3 mps 684 mmHg 28%
    20:00 +14°C° 0 mm 3 mps 684 mmHg 33%
    21:00 +14°C° 0 mm 3 mps 684 mmHg 34%
    22:00 +13°C° 0 mm 3 mps 684 mmHg 34%
    23:00 +12°C° 0 mm 3 mps 684 mmHg 35%
    Show more